Location: Central Falls
(41.8900°N, 71.3929°W)
Time: 06:46:04
(UTC+00:00)

Vanguard 3 - Pass Details

Date: 07 December 2023
Orbit: 508 x 3239 km, 33.4° (Epoch: 01 March)

Event Time Altitude Azimuth Distance (km) Brightness Sun altitude
Rises 22:36:49 0° 199° (SSW) 7,166 12.5 -14.9°
Reaches altitude 10° 22:43:58 10° 185° (S) 5,965 11.8 -16.1°
Maximum altitude 22:54:51 20° 147° (SSE) 4,600 10.8 -18.1°
Enters shadow 23:02:07 13° 114° (ESE) 4,547 10.5 -19.4°
